Weather History for Miles City, MT

Change the Weather History Date:

Friday, April 26, 2013

  Actual Average Record
Temperature  
Mean Temperature 56 °F 50 °F  
Max Temperature 75 °F 63 °F 88 °F (1952)
Min Temperature 36 °F 37 °F 20 °F (1995)
Degree Days  
Heating Degree Days 9 16  
Month to date heating degree days 668 512  
Since 1 July heating degree days 6838 7187  
Cooling Degree Days 0 0  
Month to date cooling degree days 0 0  
Year to date cooling degree days 0 0  
Growing Degree Days 5 (Base 50)    
Moisture  
Dew Point 30 °F    
Average Humidity 47    
Maximum Humidity 76    
Minimum Humidity 17    
Precipitation  
Precipitation 0.00 in 0.05 in 0.97 in (1990)
Month to date precipitation 1.25 1.12  
Year to date precipitation 1.81 2.27  
Sea Level Pressure  
Sea Level Pressure 30.00 in    
Wind  
Wind Speed 9 mph (SSW)    
Max Wind Speed 21 mph    
Max Gust Speed 26 mph    
Visibility 10 miles    
Events      
T = Trace of Precipitation, MM = Missing Value Source: NWS Daily Summary

Daily Weather History Graph

Daily Weather History Graph

Search for Another Location

Airport:

Trip Planner

Search our weather history database for the weather conditions in past years. The results will help you decide how hot, cold, wet, or windy it might be!

Date:

Astronomy

Apr. 26, 2013 Rise Set
Actual Time 5:56 AM MDT 8:06 PM MDT
Civil Twilight 5:24 AM MDT 8:39 PM MDT
Nautical Twilight 4:43 AM MDT 9:20 PM MDT
Astronomical Twilight 3:58 AM MDT 10:05 PM MDT
Moon 9:37 PM MDT (4/26) 6:23 AM MDT (4/26)
Length of Visible Light 15h 15m
Length of Day
14h 09m
Full, 99% of the Moon is Illuminated
Apr 26
Full
May 2
Last Quarter
May 9
New
May 17
First Quarter
May 24
Full

Hourly Weather History & Observations

Time (MDT) Temp. Windchill Dew Point Humidity Pressure Visibility Wind Dir Wind Speed Gust Speed Precip Events Conditions
1:53 AM 44.1 °F 42.5 °F 30.0 °F 58% 29.94 in 10.0 mi South 3.5 mph - N/A   Clear
2:53 AM 41.0 °F 36.4 °F 30.9 °F 67% 29.95 in 10.0 mi SSE 6.9 mph - N/A   Overcast
3:53 AM 37.9 °F 35.5 °F 30.0 °F 73% 29.97 in 10.0 mi SSE 3.5 mph - N/A   Partly Cloudy
4:53 AM 37.0 °F 31.0 °F 30.9 °F 79% 29.99 in 10.0 mi South 8.1 mph - N/A   Clear
5:53 AM 39.0 °F 36.8 °F 28.9 °F 67% 30.02 in 10.0 mi SSW 3.5 mph - N/A   Clear
6:53 AM 39.0 °F 35.7 °F 32.0 °F 76% 30.04 in 10.0 mi South 4.6 mph - N/A   Clear
7:53 AM 45.0 °F 43.5 °F 34.0 °F 65% 30.07 in 10.0 mi South 3.5 mph - N/A   Clear
8:53 AM 52.0 °F - 35.1 °F 53% 30.08 in 10.0 mi SSE 4.6 mph - N/A   Clear
9:53 AM 59.0 °F - 33.1 °F 38% 30.07 in 10.0 mi WSW 6.9 mph - N/A   Clear
11:53 AM 70.0 °F - 30.9 °F 24% 30.06 in 10.0 mi West 13.8 mph - N/A   Clear
12:53 PM 72.0 °F - 27.0 °F 19% 30.04 in 10.0 mi WSW 12.7 mph - N/A   Clear
1:53 PM 72.0 °F - 25.0 °F 17% 30.02 in 10.0 mi WSW 13.8 mph 23.0 mph N/A   Clear
2:53 PM 73.9 °F - 28.0 °F 18% 30.01 in 10.0 mi WSW 12.7 mph - N/A   Clear
3:53 PM 73.9 °F - 27.0 °F 18% 30.00 in 10.0 mi West 16.1 mph - N/A   Clear
4:53 PM 73.9 °F - 27.0 °F 18% 29.99 in 10.0 mi SW 12.7 mph - N/A   Clear
5:53 PM 73.9 °F - 27.0 °F 18% 29.97 in 10.0 mi WSW 13.8 mph - N/A   Clear
6:53 PM 72.0 °F - 28.0 °F 20% 29.97 in 10.0 mi WSW 10.4 mph - N/A   Clear
7:53 PM 66.0 °F - 30.9 °F 27% 29.96 in 10.0 mi SSW 6.9 mph - N/A   Clear
8:53 PM 61.0 °F - 28.9 °F 30% 29.97 in 10.0 mi South 8.1 mph - N/A   Clear
9:53 PM 57.0 °F - 30.9 °F 37% 29.97 in 10.0 mi SSE 6.9 mph - N/A   Clear
10:53 PM 52.0 °F - 33.1 °F 49% 29.96 in 10.0 mi South 6.9 mph - N/A   Clear
11:53 PM 55.0 °F - 32.0 °F 42% 29.96 in 10.0 mi West 10.4 mph 17.3 mph N/A   Clear